Location: Unspecified
(0.0000°N, 0.0000°E)
Time: 17:40:02
(UTC+02:00)

SWIFT - Visible Passes

Search period start: 02 June 2015 00:00
Search period end: 12 June 2015 00:00
Orbit: 553 x 569 km, 20.6° (Epoch: 02 June)

Date Brightness Start Highest point End Pass type
(mag) Time Alt. Az. Time Alt. Az. Time Alt. Az.
02 Jun 3.5 06:46:25 22° WNW 06:48:28 34° NNW 06:52:23 10° NE visible
03 Jun 4.0 06:43:17 18° WNW 06:45:14 25° NNW 06:48:46 10° NE visible
04 Jun 4.4 06:40:08 14° NW 06:42:03 18° NNW 06:45:02 10° NNE visible
05 Jun 4.7 06:36:57 11° NW 06:38:53 14° NNW 06:41:05 10° NNE visible
06 Jun 5.0 06:34:50 10° NNW 06:35:45 10° NNW 06:36:33 10° N visible
